Tracking 29892 objects as of 21-Nov-2024
HD Live streaming from Space Station
objects crossing your sky now

SL-8 R/B

Track SL-8 R/B now!
10-day predictions


NORAD ID: 3819
Int'l Code: 1969-024B
Perigee: 1,185.2 km
Apogee: 1,201.9 km
Inclination: 74.0 °
Period: 109.1 minutes
Semi major axis: 7564 km
RCS: 5.2212 m2 (large)
Launch date: March 17, 1969
Source: Commonwealth of Independent States (former USSR) (CIS)
Launch site: PLESETSK MISSILE AND SPACE COMPLEX (PKMTR)

Note: This is a ROCKET BODY
Your satellite tracking list
Your tracking list is empty




NASA's NSSDC Master Catalog

Two Line Element Set (TLE):
1 03819U 69024B   24325.90015830  .00000169  00000-0  47210-3 0  9997
2 03819  73.9883 319.4986 0011006 252.1904 135.7189 13.19561955681264
Source of the keplerian elements: AFSPC